This demonstration page uses our WeatherBlox Daily Observations layout. Learn more.

Left ArrowRight Arrow

39.01783, -85.05884

Hourly Observations for August 20, 2021

Temp ( °F °C ) Dew Point ( °F °C ) Humidity (%) Winds ( mph kmh ) Pressure ( in mb ) Visibility ( mi km ) Precip ( " mm )
12:52 am 00:52 Clear 72 22.2 67 19.4 84 84 Calm 30.01 1016 10 16 0.00 0.00
1:52 am 01:52 Clear 73 22.8 66 18.9 79 79 Calm 30.01 1016 10 16 0.00 0.00
2:52 am 02:52 Clear 73 22.8 66 18.9 79 79 Calm 30.00 1016 10 16 0.00 0.00
3:52 am 03:52 Clear 71 21.7 66 18.9 84 84 Calm 29.98 1015 10 16 0.00 0.00
4:52 am 04:52 Clear 70 21.1 66 18.9 87 87 Calm 29.98 1015 10 16 0.00 0.00
5:52 am 05:52 Mostly Clear 70 21.1 66 18.9 87 87 Calm 29.98 1015 10 16 0.00 0.00
6:52 am 06:52 Partly Cloudy 68 20 66 18.9 93 93 Calm 29.99 1016 7 11 0.00 0.00
7:52 am 07:52 Sunny 72 22.2 67 19.4 84 84 Calm 29.99 1016 8 13 0.00 0.00
8:52 am 08:52 Sunny 75 23.9 68 20 79 79 Calm 30.00 1016 8 13 0.00 0.00
9:52 am 09:52 Mostly Sunny 79 26.1 68 20 69 69 Calm 30.00 1016 10 16 0.00 0.00
10:52 am 10:52 Partly Cloudy 81 27.2 68 20 65 65 Calm 30.00 1016 10 16 0.00 0.00
11:52 am 11:52 Partly Cloudy 84 28.9 66 18.9 55 55 E 9 15 30.00 1016 10 16 0.00 0.00
12:52 pm 12:52 Partly Cloudy 84 28.9 65 18.3 53 53 VRB 3 6 29.98 1015 10 16 0.00 0.00
1:52 pm 13:52 Partly Cloudy 84 28.9 65 18.3 53 53 Calm 29.97 1015 10 16 0.00 0.00
2:52 pm 14:52 Partly Cloudy 87 30.6 64 17.8 46 46 Calm 29.95 1014 10 16 0.00 0.00
3:52 pm 15:52 Partly Cloudy 89 31.7 65 18.3 45 45 WSW 5 7 29.93 1013 10 16 0.00 0.00
4:52 pm 16:52 Partly Cloudy 88 31.1 65 18.3 46 46 VRB 5 7 29.91 1013 10 16 0.00 0.00
5:52 pm 17:52 Mostly Cloudy 85 29.4 67 19.4 55 55 SW 5 7 29.89 1012 10 16 0.00 0.00
6:52 pm 18:52 Mostly Cloudy 83 28.3 68 20 61 61 Calm 29.89 1012 10 16 0.00 0.00
7:52 pm 19:52 Partly Cloudy 82 27.8 66 18.9 58 58 SE 10 17 29.89 1012 10 16 0.00 0.00
8:52 pm 20:52 Mostly Clear 78 25.6 66 18.9 67 67 WSW 5 7 29.90 1013 10 16 0.00 0.00
9:52 pm 21:52 Mostly Clear 78 25.6 66 18.9 67 67 ESE 7 11 29.91 1013 10 16 0.00 0.00
10:52 pm 22:52 Mostly Clear 77 25 66 18.9 69 69 ESE 9 15 29.92 1013 10 16 0.00 0.00
11:52 pm 23:52 Partly Cloudy 77 25 65 18.3 66 66 SE 6 9 29.90 1013 10 16 0.00 0.00

Powered by AerisWeather